Content
SEND FEEDBACK

Daily
Averages
Monthly
Summary
United States of America

ST. LOUIS, MISSOURI


Home > North America > United States > Missouri
Elevation: 535 feet     Latitude: 38 45N     Longitude: 090 22W

WEATHER
 
SELECT A DAY
Number of Records: 196,649;   Date Range: 1/1/95 - 9/18/14
 
SHARE

PRINT THIS DATA

[ ← Previous Day ]
WEATHER ALMANAC - MARCH 17, 2013
[ Next Day → ]
[ °C ]   °F
Weather ElementAverageHighLow
Temperature36.1 °F39.2 °F (1:10 am)34 °F (9:54 am)
Dewpoint31.7 °F34 °F (1:54 am)26.6 °F (7:14 am)
Humidity84.3 %93 % (4:07 pm)70 % (7:14 am)
Barometer29.98 in30.12 in (6:54 am)29.79 in (9:01 pm)
Wind Speed10.8 mph15 mph (7:14 am)
Wind Gust17.3 mph (10:54 pm)
Weather ElementAverage
Visibility7.1 mi
Wind DirectionENE (65.7 °)

Weather ElementTotal
Precipitation1.17 in
Heating Degree Days28.4 (Base 65)
Averaged from 35 records on March 17, 2013
WEATHER CONDITIONS BREAKOUT
WIND DIRECTION BREAKOUT
WEATHER BY HOUR - MARCH 17, 2013
[ °C ]   °F
Local TimeTemperatureDewpointHumidityBarometerVisibilityWind DirectionWind SpeedGust SpeedPrecipitationEventsConditions
1:10 AM39.2 °F33.8 °F81 %30.04 in10.0 miNNE (30°)9.2 mphOvercast
1:54 AM37.9 °F34.0 °F86 %30.07 in6.0 miNNE (30°)8.1 mph0.03 inRainLight Rain
2:08 AM37.4 °F33.8 °F87 %30.07 in8.0 miNNE (20°)9.2 mph0.00 inRainLight Rain
2:54 AM37.0 °F33.1 °F86 %30.08 in10.0 miNE (40°)10.4 mph0.02 inOvercast
3:54 AM36.0 °F30.9 °F82 %30.08 in10.0 miNE (50°)11.5 mph0.01 inOvercast
4:54 AM36.0 °F30.9 °F82 %30.07 in10.0 miENE (60°)9.2 mph0.00 inOvercast
5:54 AM36.0 °F30.0 °F79 %30.10 in10.0 miNE (50°)9.2 mphOvercast
6:19 AM35.6 °F28.4 °F75 %30.09 in10.0 miNE (50°)9.2 mphOvercast
6:54 AM35.1 °F28.0 °F76 %30.12 in10.0 miENE (60°)9.2 mphOvercast
7:14 AM35.6 °F26.6 °F70 %30.08 in10.0 miENE (70°)15.0 mphOvercast
7:54 AM35.1 °F27.0 °F72 %30.11 in10.0 miENE (70°)10.4 mphOvercast
8:54 AM35.1 °F27.0 °F72 %30.11 in10.0 miENE (60°)11.5 mphOvercast
9:54 AM34.0 °F28.0 °F79 %30.09 in10.0 miNE (50°)11.5 mphOvercast
10:54 AM35.1 °F30.0 °F82 %30.09 in9.0 miENE (60°)10.4 mphOvercast
11:54 AM37.0 °F30.0 °F76 %30.06 in10.0 miENE (70°)12.7 mphOvercast
12:54 PM37.9 °F30.9 °F76 %30.04 in10.0 miENE (70°)9.2 mphOvercast
1:54 PM37.9 °F30.9 °F76 %30.01 in10.0 miENE (70°)12.7 mphOvercast
2:54 PM37.0 °F32.0 °F82 %30.00 in8.0 miEast (80°)9.2 mph0.00 inOvercast
3:25 PM35.6 °F30.2 °F81 %29.96 in2.0 miENE (70°)10.4 mph0.01 inRainLight Rain
3:54 PM36.0 °F33.1 °F89 %29.95 in4.0 miEast (80°)12.7 mph0.04 inRainLight Rain
4:07 PM35.6 °F33.8 °F93 %29.92 in5.0 miEast (80°)12.7 mph0.00 inOvercast
4:33 PM35.6 °F33.8 °F93 %29.92 in5.0 miENE (70°)9.2 mph0.00 inOvercast
4:54 PM36.0 °F33.1 °F89 %29.94 in6.0 miNE (40°)10.4 mph0.00 inOvercast
5:51 PM35.6 °F32.0 °F87 %29.91 in1.8 miEast (90°)10.4 mph0.06 inRainRain
5:52 PM35.1 °F32.0 °F89 %29.93 in1.8 miEast (80°)11.5 mph0.07 inRainHeavy Rain
6:14 PM35.6 °F33.8 °F93 %29.89 in2.0 miENE (70°)10.4 mph0.07 inRainRain
6:54 PM35.1 °F33.1 °F92 %29.88 in3.0 miENE (70°)12.7 mph0.18 inRainLight Rain
7:47 PM35.6 °F33.8 °F93 %29.86 in4.0 miENE (70°)12.7 mph0.09 inRain-ThunderstormRain
7:54 PM35.1 °F33.1 °F92 %29.89 in4.0 miENE (70°)10.4 mph0.11 inRain-ThunderstormThunderstorms and Rain
8:31 PM35.6 °F33.8 °F93 %29.83 in3.0 miEast (90°)11.5 mph0.16 inRainHeavy Rain
8:54 PM36.0 °F33.1 °F89 %29.84 in4.0 miEast (90°)10.4 mph0.23 inRainRain
9:01 PM35.6 °F33.8 °F93 %29.79 in4.0 miEast (90°)15.0 mphRainRain
9:54 PM37.0 °F34.0 °F89 %29.84 in9.0 miEast (90°)10.4 mph0.08 inRainLight Rain
10:54 PM37.0 °F34.0 °F89 %29.81 in10.0 miEast (90°)10.4 mph17.3 mph0.00 inOvercast
11:54 PM37.0 °F34.0 °F89 %29.81 in10.0 miENE (70°)8.1 mph0.01 inOvercast
Hourly data recorded from KSUS, located miles away from St. Louis, Missouri







STORIES FROM OUR PARTNERS